DW0265 Weather Reports


time (UTC)temp
F
wind
direction
speed
knots
gust
knots
rain 1hr
in
rain 24hr
in
rain mn
in
humidity
%
barometer
mb
20260505220505 54 26 0.0 0.0 0.00 0.00 0.00 70 1013.1
20260505203505 56 73 0.0 0.0 0.00 0.00 0.00 69 1012.5
20260505200505 56 320 0.0 0.0 0.00 0.00 0.00 70 1012.2
20260505190005 57 320 0.0 0.0 0.00 0.00 0.00 66 1011.8
20260505183004 58 320 0.0 0.0 0.00 0.00 0.00 68 1011.5
20260505180005 58 320 0.0 0.0 0.00 0.00 0.00 68 1011.6
20260505173005 59 340 0.0 2.6 0.00 0.00 0.00 63 1011.6
20260505170505 59 14 0.0 0.0 0.00 0.00 0.00 63 1011.6
20260505170005 59 14 0.0 0.0 0.00 0.00 0.00 63 1011.6
20260505153006 61 342 0.9 4.3 0.00 0.00 0.00 59 1011.8
20260505123005 62 44 0.0 4.3 0.00 0.00 0.00 56 1012.4
20260505113505 61 61 0.9 2.6 0.00 0.00 0.00 59 1012.5
20260505113004 61 9 0.9 10.4 0.00 0.00 0.00 57 1012.6
20260505110505 60 54 2.6 7.8 0.00 0.00 0.00 62 1012.7
20260505100504 58 328 3.5 7.0 0.00 0.00 0.00 72 1013.1
20260505100004 58 0 0.0 7.8 0.00 0.00 0.00 72 1013.1
20260505093504 56 345 0.9 4.3 0.00 0.00 0.00 75 1013.2
20260505093004 56 327 0.9 8.7 0.00 0.00 0.00 76 1013.2
20260505090504 55 340 0.9 7.0 0.00 0.00 0.00 78 1013.4
20260505090004 55 341 1.7 5.2 0.00 0.00 0.00 78 1013.4
20260505080505 55 340 3.5 7.8 0.00 0.00 0.00 79 1013.6
20260505073004 54 338 0.9 7.0 0.00 0.00 0.00 84 1013.4
20260505070504 54 334 2.6 5.2 0.00 0.00 0.00 84 1013.5
20260505060004 53 6 0.0 1.7 0.00 0.00 0.00 89 1013.6
20260505040005 52 53 0.0 0.0 0.00 0.00 0.00 87 1013.8
20260505033002 53 53 0.0 2.6 0.00 0.00 0.00 87 1013.9
20260505030502 53 50 0.9 2.6 0.00 0.00 0.00 87 1013.9
20260505023502 53 40 0.9 2.6 0.00 0.00 0.00 86 1013.9
20260505020502 54 35 0.0 0.0 0.00 0.00 0.00 85 1014.0
20260505020002 54 35 0.0 1.7 0.00 0.00 0.00 85 1013.9
20260505013002 54 352 0.0 2.6 0.00 0.00 0.00 86 1014.3
20260505010502 55 352 0.0 0.0 0.00 0.00 0.00 85 1014.4
20260505010002 55 352 0.0 1.7 0.00 0.00 0.00 85 1014.5
20260505003002 55 348 0.9 2.6 0.00 0.00 0.00 83 1014.6
20260505000502 55 344 0.0 0.0 0.00 0.00 0.00 82 1014.7
20260504230503 56 340 0.0 2.6 0.00 0.00 0.00 81 1014.9
20260504223502 56 341 0.9 2.6 0.00 0.00 0.00 81 1014.9
20260504223002 56 336 1.7 5.2 0.00 0.00 0.00 81 1015.0